Weather History for De Queen, AR

Change the Weather History Date:

Saturday, February 22, 2014

  Actual Average Record
Temperature  
Mean Temperature 52 °F 47 °F  
Max Temperature 74 °F 60 °F 88 °F (1996)
Min Temperature 29 °F 34 °F 14 °F (1963)
Degree Days  
Heating Degree Days 13 18  
Month to date heating degree days 499 454  
Since 1 July heating degree days 2640 2390  
Cooling Degree Days 0 0  
Month to date cooling degree days 0 0  
Year to date cooling degree days 0 1  
Growing Degree Days 2 (Base 50)    
Moisture  
Dew Point 31 °F    
Average Humidity 55    
Maximum Humidity 92    
Minimum Humidity 17    
Precipitation  
Precipitation 0.00 in 0.11 in 1.45 in (1994)
Month to date precipitation 1.02 3.08  
Year to date precipitation 1.94 6.40  
Snow  
Snow 0.00 in - - ()
Month to date snowfall 1.1  
Since 1 July snowfall 1.2  
Snow Depth 0.00 in    
Sea Level Pressure  
Sea Level Pressure 29.96 in    
Wind  
Wind Speed 4 mph (SE)    
Max Wind Speed 17 mph    
Max Gust Speed 22 mph    
Visibility 10 miles    
Events Snow    
T = Trace of Precipitation, MM = Missing Value Source: NWS Daily Summary

Daily Weather History Graph

Daily Weather History Graph

Search for Another Location

Airport:

Trip Planner

Search our weather history database for the weather conditions in past years. The results will help you decide how hot, cold, wet, or windy it might be!

Date:

Astronomy

Feb. 22, 2014 Rise Set
Actual Time 6:54 AM CST 6:07 PM CST
Civil Twilight 6:29 AM CST 6:33 PM CST
Nautical Twilight 6:00 AM CST 7:02 PM CST
Astronomical Twilight 5:31 AM CST 7:31 PM CST
Moon 12:44 AM CST (2/22) 11:26 AM CST (2/22)
Length of Visible Light 12h 03m
Length of Day
11h 13m
Waning Gibbous, 50% of the Moon is Illuminated
Feb 22
Waning Gibbous
Mar 1
New
Mar 8
First Quarter
Mar 16
Full
Mar 23
Last Quarter

Hourly Weather History & Observations

Time (CST) Temp. Windchill Dew Point Humidity Pressure Visibility Wind Dir Wind Speed Gust Speed Precip Events Conditions
12:53 AM 34.0 °F 31.0 °F 30.9 °F 89% 30.06 in 10.0 mi ENE 3.5 mph - N/A   Clear
1:53 AM 34.0 °F 29.8 °F 28.9 °F 82% 30.05 in 10.0 mi East 4.6 mph - 0.00 in Snow Light Snow
2:53 AM 34.0 °F - 28.9 °F 82% 30.05 in 10.0 mi Calm Calm - 0.00 in   Clear
3:53 AM 33.1 °F 30.0 °F 30.0 °F 89% 30.04 in 10.0 mi East 3.5 mph - N/A   Clear
4:53 AM 32.0 °F 28.7 °F 28.9 °F 88% 30.03 in 10.0 mi ENE 3.5 mph - N/A   Clear
5:53 AM 30.9 °F - 28.0 °F 89% 30.04 in 10.0 mi Calm Calm - N/A   Clear
6:53 AM 30.0 °F 25.2 °F 28.0 °F 92% 30.04 in 10.0 mi East 4.6 mph - N/A   Clear
7:41 AM 32.0 °F - 30.0 °F 92% 30.05 in 9.0 mi Calm Calm - 0.00 in   Partly Cloudy
7:53 AM 34.0 °F - 30.0 °F 85% 30.05 in 10.0 mi Calm Calm - 0.00 in   Clear
8:53 AM 44.1 °F - 34.0 °F 68% 30.05 in 10.0 mi Calm Calm - N/A   Clear
9:53 AM 54.0 °F - 32.0 °F 43% 30.04 in 10.0 mi Calm Calm - N/A   Clear
10:53 AM 60.1 °F - 32.0 °F 35% 30.01 in 10.0 mi Variable 3.5 mph - N/A   Clear
11:53 AM 66.0 °F - 33.1 °F 29% 29.97 in 10.0 mi South 10.4 mph - N/A   Clear
12:53 PM 70.0 °F - 30.9 °F 24% 29.93 in 10.0 mi South 11.5 mph 19.6 mph N/A   Clear
1:53 PM 71.1 °F - 28.0 °F 20% 29.88 in 10.0 mi South 11.5 mph 20.7 mph N/A   Clear
2:53 PM 73.0 °F - 28.0 °F 19% 29.85 in 10.0 mi SSE 10.4 mph - N/A   Clear
3:53 PM 73.0 °F - 26.1 °F 17% 29.83 in 10.0 mi SSW 13.8 mph - N/A   Clear
4:53 PM 72.0 °F - 25.0 °F 17% 29.82 in 10.0 mi South 8.1 mph - N/A   Clear
5:53 PM 69.1 °F - 24.1 °F 18% 29.83 in 10.0 mi SSW 8.1 mph - N/A   Clear
6:53 PM 61.0 °F - 28.9 °F 30% 29.85 in 10.0 mi SSE 3.5 mph - N/A   Clear
7:53 PM 57.9 °F - 32.0 °F 37% 29.87 in 10.0 mi SE 5.8 mph - N/A   Clear
8:53 PM 46.0 °F - 37.0 °F 71% 29.88 in 10.0 mi Calm Calm - N/A   Clear
9:53 PM 43.0 °F - 36.0 °F 76% 29.90 in 10.0 mi Calm Calm - N/A   Clear
10:53 PM 43.0 °F - 36.0 °F 76% 29.91 in 9.0 mi Calm Calm - N/A   Clear
11:53 PM 41.0 °F - 36.0 °F 82% 29.91 in 10.0 mi Calm Calm - N/A   Clear